Santa Rosa, CA

2:22 PM PST on December 05, 2019 (GMT -0800)
Sonoma County

Weather History for KSTS - November, 2019

Change the Weather History Date:

Tuesday, November 19, 2019

  Actual Average Record
Temperature  
Mean Temperature 55 °F 51 °F  
Max Temperature 69 °F 63 °F 76 °F (2015)
Min Temperature 41 °F 40 °F 30 °F (2009)
Degree Days  
Heating Degree Days 10    
Month to date heating degree days 137  
Since 1 July heating degree days 339  
Cooling Degree Days 0    
Month to date cooling degree days 0  
Year to date cooling degree days 569  
Growing Degree Days 6 (Base 50)    
Moisture  
Dew Point 45 °F    
Average Humidity 70    
Maximum Humidity 100    
Minimum Humidity 39    
Precipitation  
Precipitation 0.03 in 0.15 in 2.63 in (2016)
Month to date precipitation 0.03 2.78  
Year to date precipitation 38.57 27.34  
Sea Level Pressure  
Sea Level Pressure 29.68 in    
Wind  
Wind Speed 11 mph (NW)    
Max Wind Speed 22 mph    
Max Gust Speed 30 mph    
Visibility 9 miles    
Events      
T = Trace of Precipitation, MM = Missing Value Source: NWS Daily Summary

Daily Weather History Graph

Daily Weather History Graph

Search for Another Location

Airport or City:

Astronomy

Nov. 19, 2019 Rise Set
Actual Time 6:57 AM PST 4:55 PM PST
Civil Twilight 6:28 AM PST 5:24 PM PST
Nautical Twilight 5:56 AM PST 5:56 PM PST
Astronomical Twilight 5:24 AM PST 6:27 PM PST
Moon 11:57 PM PST (11/19) 1:11 PM PST (11/19)
Length of Visible Light 10h 55m
Length of Day
9h 58m
Waning Gibbous, 50% of the Moon is Illuminated
Nov 19
Waning Gibbous
Nov 19
Last Quarter
Nov 26
New
Dec 3
First Quarter
Dec 11
Full

Hourly Weather History & Observations

Time (PST) Temp. Windchill Dew Point Humidity Pressure Visibility Wind Dir Wind Speed Gust Speed Precip Events Conditions
12:53 AM 48.0 °F - 46.9 °F 96% 29.81 in 9.0 mi Calm Calm - N/A   Clear
1:53 AM 48.0 °F - 46.9 °F 96% 29.80 in 9.0 mi Calm Calm - N/A   Clear
2:53 AM 46.0 °F 44.8 °F 45.0 °F 96% 29.80 in 9.0 mi SSE 3.5 mph - N/A   Clear
3:53 AM 46.9 °F - 46.0 °F 97% 29.78 in 8.0 mi SSW 3.5 mph - N/A   Clear
4:53 AM 45.0 °F 42.6 °F 44.1 °F 97% 29.77 in 8.0 mi South 4.6 mph - N/A   Clear
5:30 AM 43.0 °F 41.3 °F 42.1 °F 97% 29.79 in 1.8 mi NE 3.5 mph - N/A   Clear
10:53 AM 66.0 °F - 44.1 °F 45% 29.75 in 10.0 mi NW 11.5 mph - 0.00 in   Clear
11:53 AM 68.0 °F - 43.0 °F 40% 29.73 in 10.0 mi NW 12.7 mph 21.9 mph N/A   Clear
12:53 PM 68.0 °F - 44.1 °F 42% 29.70 in 10.0 mi NW 15.0 mph 25.3 mph N/A   Partly Cloudy
1:53 PM 68.0 °F - 45.0 °F 43% 29.67 in 10.0 mi NW 12.7 mph - N/A   Partly Cloudy
2:53 PM 66.9 °F - 45.0 °F 45% 29.65 in 10.0 mi NW 16.1 mph - N/A   Clear
3:53 PM 64.0 °F - 45.0 °F 50% 29.64 in 10.0 mi NW 16.1 mph 25.3 mph N/A   Partly Cloudy
4:53 PM 60.1 °F - 45.0 °F 57% 29.63 in 10.0 mi NW 15.0 mph 21.9 mph N/A   Clear
5:53 PM 57.9 °F - 46.0 °F 65% 29.61 in 10.0 mi NW 12.7 mph 23.0 mph N/A   Clear
6:53 PM 55.9 °F - 45.0 °F 67% 29.59 in 10.0 mi NW 18.4 mph 24.2 mph N/A   Clear
7:53 PM 55.9 °F - 44.1 °F 64% 29.58 in 10.0 mi NNW 13.8 mph 26.5 mph N/A   Mostly Cloudy
8:53 PM 53.1 °F - 46.0 °F 77% 29.57 in 10.0 mi NW 15.0 mph 23.0 mph 0.03 in   Overcast
9:53 PM 54.0 °F - 43.0 °F 66% 29.58 in 10.0 mi NW 11.5 mph 26.5 mph N/A   Partly Cloudy
10:53 PM 54.0 °F - 43.0 °F 66% 29.58 in 10.0 mi NNW 17.3 mph 24.2 mph N/A   Clear
11:53 PM 53.1 °F - 42.1 °F 66% 29.58 in 10.0 mi NNW 16.1 mph 23.0 mph N/A   Clear